| time (UTC) | temp C | wind direction | speed KPH | gust KPH | rain 1hr cm | rain 24hr cm | rain mn cm | humidity % | barometer mb |
| 20260507033017 | 6 | 111 | 20.9 | 48.3 | 0.00 | 0.00 | 0.00 | 61 | 1009.5 |
| 20260507031514 | 6 | 146 | 27.4 | 49.9 | 0.00 | 0.00 | 0.00 | 62 | 1009.3 |
| 20260507030016 | 6 | 173 | 33.8 | 51.5 | 0.00 | 0.00 | 0.00 | 60 | 1009.1 |
| 20260507024511 | 6 | 117 | 33.8 | 56.3 | 0.00 | 0.00 | 0.00 | 59 | 1009.0 |
| 20260507023009 | 7 | 180 | 20.9 | 43.5 | 0.00 | 0.00 | 0.00 | 59 | 1008.7 |
| 20260507021508 | 7 | 153 | 22.5 | 45.1 | 0.00 | 0.00 | 0.00 | 60 | 1008.6 |
| 20260507020008 | 7 | 128 | 37.0 | 48.3 | 0.00 | 0.00 | 0.00 | 59 | 1008.4 |
| 20260507014507 | 7 | 121 | 35.4 | 51.5 | 0.00 | 0.00 | 0.00 | 57 | 1008.4 |
| 20260507013005 | 8 | 128 | 30.6 | 49.9 | 0.00 | 0.00 | 0.00 | 58 | 1008.4 |
| 20260507011504 | 8 | 100 | 35.4 | 45.1 | 0.00 | 0.00 | 0.00 | 54 | 1008.4 |
| 20260507010004 | 9 | 30 | 29.0 | 53.1 | 0.00 | 0.00 | 0.00 | 54 | 1008.1 |
| 20260507004504 | 8 | 140 | 30.6 | 46.7 | 0.00 | 0.00 | 0.00 | 52 | 1008.2 |
| 20260507003001 | 9 | 139 | 29.0 | 43.5 | 0.00 | 0.00 | 0.00 | 50 | 1008.2 |
| 20260507001607 | 10 | 74 | 22.5 | 38.6 | 0.00 | 0.00 | 0.00 | 53 | 1008.1 |
| 20260507000124 | 9 | 134 | 25.7 | 41.8 | 0.00 | 0.00 | 0.00 | 53 | 1008.2 |
| 20260506234621 | 8 | 115 | 29.0 | 41.8 | 0.00 | 0.00 | 0.00 | 55 | 1008.2 |
| 20260506233058 | 9 | 141 | 25.7 | 38.6 | 0.00 | 0.00 | 0.00 | 56 | 1007.9 |
| 20260506231557 | 10 | 135 | 25.7 | 40.2 | 0.00 | 0.00 | 0.00 | 54 | 1008.0 |
| 20260506224556 | 10 | 125 | 27.4 | 46.7 | 0.00 | 0.00 | 0.00 | 52 | 1008.1 |
| 20260506223051 | 9 | 146 | 24.1 | 40.2 | 0.00 | 0.00 | 0.00 | 57 | 1008.0 |
| 20260506221559 | 9 | 155 | 27.4 | 43.5 | 0.00 | 0.00 | 0.00 | 57 | 1008.1 |
| 20260506220049 | 9 | 142 | 25.7 | 38.6 | 0.00 | 0.00 | 0.00 | 54 | 1008.2 |
| 20260506214548 | 8 | 153 | 37.0 | 51.5 | 0.00 | 0.00 | 0.00 | 53 | 1008.1 |
| 20260506213053 | 9 | 139 | 40.2 | 51.5 | 0.00 | 0.00 | 0.00 | 55 | 1008.0 |
| 20260506211551 | 9 | 175 | 27.4 | 48.3 | 0.00 | 0.00 | 0.00 | 58 | 1008.1 |
| 20260506210046 | 9 | 181 | 29.0 | 41.8 | 0.00 | 0.00 | 0.00 | 60 | 1008.0 |
| 20260506204537 | 8 | 104 | 24.1 | 43.5 | 0.00 | 0.00 | 0.00 | 66 | 1008.2 |
| 20260506203034 | 7 | 109 | 17.7 | 35.4 | 0.00 | 0.00 | 0.00 | 70 | 1008.2 |
| 20260506201536 | 6 | 141 | 24.1 | 35.4 | 0.00 | 0.00 | 0.00 | 78 | 1008.3 |
| 20260506200030 | 5 | 128 | 17.7 | 27.4 | 0.00 | 0.00 | 0.00 | 80 | 1008.3 |
| 20260506194524 | 5 | 138 | 22.5 | 33.8 | 0.00 | 0.00 | 0.00 | 81 | 1008.4 |
| 20260506193032 | 5 | 139 | 14.5 | 32.2 | 0.00 | 0.00 | 0.00 | 82 | 1008.4 |
| 20260506191519 | 5 | 143 | 20.9 | 30.6 | 0.00 | 0.00 | 0.00 | 82 | 1008.3 |
| 20260506190016 | 4 | 114 | 11.3 | 17.7 | 0.00 | 0.00 | 0.00 | 84 | 1008.4 |
| 20260506184512 | 4 | 148 | 9.7 | 22.5 | 0.00 | 0.00 | 0.00 | 84 | 1008.4 |
| 20260506183006 | 3 | 146 | 8.0 | 17.7 | 0.00 | 0.00 | 0.00 | 85 | 1008.3 |
| 20260506181517 | 3 | 241 | 8.0 | 22.5 | 0.00 | 0.00 | 0.00 | 84 | 1008.3 |
| 20260506180005 | 3 | 164 | 8.0 | 24.1 | 0.00 | 0.00 | 0.00 | 84 | 1008.3 |
| 20260506174502 | 3 | 173 | 9.7 | 20.9 | 0.00 | 0.00 | 0.00 | 86 | 1008.2 |
| 20260506173127 | 3 | 173 | 8.0 | 25.7 | 0.00 | 0.00 | 0.00 | 86 | 1008.3 |
| 20260506171701 | 3 | 146 | 16.1 | 29.0 | 0.00 | 0.00 | 0.00 | 86 | 1008.1 |
| 20260506170107 | 3 | 131 | 22.5 | 35.4 | 0.00 | 0.00 | 0.00 | 84 | 1008.0 |
| 20260506164554 | 3 | 86 | 19.3 | 37.0 | 0.00 | 0.00 | 0.00 | 83 | 1007.7 |
| 20260506163058 | 3 | 168 | 24.1 | 35.4 | 0.00 | 0.00 | 0.00 | 83 | 1007.7 |
| 20260506161550 | 3 | 142 | 22.5 | 37.0 | 0.00 | 0.00 | 0.00 | 83 | 1007.6 |
| 20260506160049 | 3 | 138 | 24.1 | 37.0 | 0.00 | 0.00 | 0.00 | 83 | 1007.6 |
| 20260506154606 | 3 | 132 | 19.3 | 30.6 | 0.00 | 0.00 | 0.00 | 84 | 1007.5 |
| 20260506153046 | 3 | 131 | 20.9 | 35.4 | 0.00 | 0.00 | 0.00 | 84 | 1007.5 |
| 20260506151543 | 2 | 127 | 20.9 | 32.2 | 0.00 | 0.00 | 0.00 | 84 | 1007.5 |
| 20260506150039 | 2 | 140 | 20.9 | 30.6 | 0.00 | 0.00 | 0.00 | 83 | 1007.3 |
| 20260506144544 | 2 | 134 | 20.9 | 37.0 | 0.00 | 0.00 | 0.00 | 83 | 1007.5 |
| 20260506143037 | 2 | 141 | 25.7 | 33.8 | 0.00 | 0.00 | 0.00 | 83 | 1007.3 |
| 20260506141534 | 2 | 136 | 29.0 | 37.0 | 0.00 | 0.00 | 0.00 | 83 | 1007.1 |
| 20260506140035 | 2 | 105 | 32.2 | 43.5 | 0.00 | 0.00 | 0.00 | 82 | 1007.1 |
| 20260506134529 | 2 | 123 | 32.2 | 48.3 | 0.00 | 0.00 | 0.00 | 81 | 1006.7 |
| 20260506133025 | 3 | 98 | 29.0 | 46.7 | 0.00 | 0.00 | 0.00 | 80 | 1006.7 |
| 20260506131524 | 3 | 155 | 24.1 | 38.6 | 0.00 | 0.00 | 0.00 | 80 | 1006.6 |
| 20260506130025 | 3 | 146 | 14.5 | 25.7 | 0.00 | 0.00 | 0.00 | 79 | 1006.7 |
| 20260506124521 | 3 | 99 | 19.3 | 32.2 | 0.00 | 0.00 | 0.00 | 79 | 1006.5 |
| 20260506123020 | 3 | 132 | 25.7 | 43.5 | 0.00 | 0.00 | 0.00 | 79 | 1006.4 |
| 20260506121516 | 3 | 136 | 20.9 | 33.8 | 0.00 | 0.00 | 0.00 | 78 | 1006.4 |
| 20260506120014 | 3 | 140 | 16.1 | 29.0 | 0.00 | 0.00 | 0.00 | 78 | 1006.3 |
| 20260506114512 | 3 | 186 | 14.5 | 30.6 | 0.00 | 0.03 | 0.00 | 78 | 1006.5 |
| 20260506113011 | 3 | 156 | 25.7 | 38.6 | 0.00 | 0.03 | 0.00 | 78 | 1006.3 |
| 20260506111511 | 3 | 128 | 25.7 | 38.6 | 0.00 | 0.03 | 0.00 | 79 | 1006.2 |
| 20260506110006 | 3 | 156 | 24.1 | 37.0 | 0.00 | 0.03 | 0.00 | 78 | 1006.2 |
| 20260506104515 | 3 | 143 | 20.9 | 33.8 | 0.00 | 0.03 | 0.00 | 79 | 1006.3 |
| 20260506103007 | 3 | 142 | 16.1 | 27.4 | 0.00 | 0.03 | 0.00 | 79 | 1006.3 |
| 20260506101506 | 3 | 136 | 14.5 | 27.4 | 0.00 | 0.03 | 0.00 | 79 | 1006.1 |
| 20260506100100 | 3 | 155 | 14.5 | 30.6 | 0.00 | 0.03 | 0.00 | 80 | 1005.9 |
| 20260506094559 | 3 | 142 | 17.7 | 29.0 | 0.00 | 0.03 | 0.00 | 81 | 1005.9 |
| 20260506093057 | 3 | 142 | 16.1 | 27.4 | 0.00 | 0.03 | 0.00 | 81 | 1005.8 |
| 20260506091559 | 3 | 155 | 17.7 | 35.4 | 0.00 | 0.03 | 0.00 | 80 | 1005.7 |
| 20260506090054 | 3 | 137 | 16.1 | 27.4 | 0.00 | 0.03 | 0.00 | 80 | 1005.7 |
| 20260506084553 | 3 | 172 | 12.9 | 20.9 | 0.00 | 0.05 | 0.00 | 80 | 1005.6 |
| 20260506083051 | 3 | 138 | 9.7 | 19.3 | 0.00 | 0.05 | 0.00 | 81 | 1005.4 |
| 20260506081556 | 3 | 169 | 8.0 | 19.3 | 0.00 | 0.05 | 0.00 | 81 | 1005.1 |
| 20260506073041 | 3 | 99 | 25.7 | 37.0 | 0.00 | 0.08 | 0.05 | 81 | 1004.6 |
| 20260506071540 | 3 | 113 | 20.9 | 35.4 | 0.00 | 0.08 | 0.05 | 82 | 1004.6 |
| 20260506061542 | 3 | 136 | 19.3 | 30.6 | 0.00 | 0.10 | 0.05 | 80 | 1004.7 |
| 20260506044534 | 5 | 128 | 11.3 | 20.9 | 0.00 | 0.15 | 0.05 | 79 | 1003.8 |
| 20260506043028 | 5 | 150 | 11.3 | 24.1 | 0.00 | 0.15 | 0.05 | 77 | 1003.7 |
| 20260506041527 | 5 | 105 | 12.9 | 25.7 | 0.00 | 0.15 | 0.05 | 76 | 1003.6 |
| 20260506040040 | 5 | 118 | 14.5 | 29.0 | 0.00 | 0.15 | 0.05 | 75 | 1003.5 |
| 20260506034526 | 5 | 140 | 16.1 | 29.0 | 0.00 | 0.18 | 0.05 | 74 | 1003.5 |